Regional Weather Roundup
Issued by NWS

Home | Current Version | Previous Version | Graphics & Text | Print | Product List | Glossary On
Versions: 1 2 3 4 5 6 7 8 9 10 11 12 13 14 15 16 17 18 19 20 21 22 23 24 25 26 27 28 29 30 31 32 33 34 35 36 37 38 39 40 41 42 43 44 45 46 47 48 49 50
000
ASUS45 KSLC 221010
RWRUT

UTAH REGIONAL WEATHER ROUNDUP
NATIONAL WEATHER SERVICE SALT LAKE CITY UT
300 AM MST MON DEC 22 2014

UTZ001>011-023>025-221100-

NORTHERN UTAH

CITY           SKY/WX    TMP DP  RH WIND       PRES   REMARKS
BRIGHAM CITY   CLOUDY    40  32  74 S3        30.01F
HILL AFB       CLOUDY    39  35  86 SW5       30.02S
LOGAN          CLOUDY    38  31  76 SW3       29.99S
OGDEN          CLOUDY    40  35  83 S6        30.02S
PROVO AIRPORT  CLOUDY    39  34  81 NW3       30.05S
SALT LAKE CITY CLOUDY    41  35  79 CALM      30.03S
VERNAL         CLOUDY    33  30  88 W5        29.88R WCI  29
WENDOVER       CLOUDY    48  36  61 NW6       30.02F
HEBER CITY     MIX PCPN  36  32  87 S8        29.99S WCI  29
WEST JORDAN    CLOUDY    41  37  87 N6        30.04S

$$

UTZ012>022-026-027-221100-

SOUTHERN/CENTRAL UTAH

CITY           SKY/WX    TMP DP  RH WIND       PRES   REMARKS
BLANDING       MOCLDY    35  32  90 S8        30.03S WCI  28
BRYCE CANYON   PTCLDY    38  31  76 NW9G18    30.07F WCI  31
CEDAR CITY     MOCLDY    40  33  76 S6        30.07S
DELTA          CLOUDY    42  40  95 E3        30.05F
MILFORD        PTCLDY    34  30  85 N5        30.06R WCI  30
MOAB/CYNLANDS  CLEAR     32  30  92 N3        29.93S
PRICE          MOCLDY    43  27  53 NW18G39   29.92R
ST GEORGE      CLOUDY    39  32  75 CALM      30.09S
KANAB          CLEAR     30  30 100 CALM      30.11F

$$

REGIONAL REPORTS     COLORADO/ARIZONA

CITY           SKY/WX    TMP DP  RH WIND       PRES   REMARKS
CRAIG, CO      CLOUDY    35  27  72 W18G24    29.86R WCI  24
GRAND JUNCTION CLOUDY    32  31  96 CALM      29.89R
RIFLE          CLOUDY    35  32  88 W21       29.87R WCI  24
MONTROSE       CLOUDY    31  30  96 SE5       29.91S WCI  26
CORTEZ         MOCLDY    34  31  88 NE3       29.96S
PAGE, AZ       PTCLDY    37  31  78 SW5       29.99F WCI  33
GRAND CANYON   PTCLDY    26  25  96 CALM      30.12S
KINGMAN        PTCLDY    37  33  85 CALM      30.09R
FLAGSTAFF      PTCLDY    41  31  67 W8        30.09F

$$

REGIONAL REPORTS    NEVADA/IDAHO/WYOMING

CITY           SKY/WX    TMP DP  RH WIND       PRES   REMARKS
LAS VEGAS, NV  MOCLDY    47  39  74 SW6       30.05R
ELY            CLOUDY    44  37  76 SE3       30.16F
ELKO           MOCLDY    45  41  86 W13       30.12R
POCATELLO, ID  CLOUDY    35  35 100 SW22      29.97S WCI  23
BURLEY         CLOUDY    36  32  85 W16G22    30.01S WCI  26
EVANSTON, WY   CLOUDY    31  26  82 W12       29.96F WCI  22
ROCK SPRINGS   MOCLDY    28  23  81 W15       29.85S WCI  16
KEMMERER       FLURRIES  30  27  86 W18       29.90R WCI  18

$$



USA.gov is the U.S. government's official web portal to all federal, state and local government web resources and services.